User: anonymous   Login
Location: ??
(35.4032°N, 139.3073°E)
Time: 06:57:11
(UTC+00:00)
Language:

Cosmos 1842 - Orbit

View from above orbital plane
View from above orbital plane
View from above satellite
View from above satellite

Ground track
Ground track

The orbit data is extracted from the following two-line orbital elements,

1 17911U 87038A   24164.61075403  .00007764  00000-0  30756-3 0  9996
2 17911  82.5164 206.7729 0009507  70.4020 289.8243 15.25213871 27712
Epoch (UTC): 12 June 2024 14:39:29
Eccentricity: 0.0009507
inclination: 82.5164°
perigee height: 483 km
apogee height: 496 km
right ascension of ascending node: 206.7729°
argument of perigee: 70.4020°
revolutions per day: 15.25213871
mean anomaly at epoch: 289.8243°
orbit number at epoch: 2771

The dashed part of the orbit path shows where the satellite is in the earth's shadow,  

DLR